Location: Saint-Gilles les Bains
(21.0539°S, 55.2287°E)
Time: 14:05:11
(UTC+04:00)

Hubble Space Telescope - Visible Passes

Search period start: 21 July 2018 00:00
Search period end: 31 July 2018 00:00
Orbit: 537 x 541 km, 28.5° (Epoch: 20 July)

Date Brightness Start Highest point End Pass type
(mag) Time Alt. Az. Time Alt. Az. Time Alt. Az.
21 Jul 2.0 18:43:54 10° W 18:47:51 41° NNW 18:51:47 10° NE visible
22 Jul 2.6 18:33:45 10° W 18:37:27 31° NNW 18:41:09 10° NE visible
23 Jul 3.1 18:23:43 10° W 18:27:04 23° NNW 18:30:23 10° NNE visible
30 Jul 3.5 05:23:24 10° N 05:25:34 14° NNE 05:27:44 10° ENE visible
